Theta_e
337 338 339 340 340 341 342 344 345 345 346 347 348 348 348 349 351 353 353 355 355 356 358 358 358 358 358 359 360 361 361 361 361 359 358 358 359 359 359 359 359 361 361 361 363 363 366 368 367 367 366 364 363 363 364 364 363 362 363 363 361 360 359
335 336 337 339 340 340 342 345 346 345 346 346 347 348 348 349 351 352 352 355 356 356 357 357 357 357 358 358 360 361 361 360 360 360 359 359 360 360 360 360 360 361 362 362 364 367 368 367 367 367 366 365 362 363 362 363 363 363 362 361 360 359 358
334 335 336 338 339 340 342 344 345 345 346 345 346 346 347 350 352 352 353 353 354 356 357 357 357 357 358 359 359 360 360 360 360 359 358 357 358 356 359 361 361 360 361 363 365 365 366 366 367 367 366 364 362 361 362 362 363 362 362 361 360 358 356
332 333 335 338 340 341 342 343 344 344 345 345 345 346 347 350 351 353 354 353 353 355 355 356 356 356 357 358 358 359 359 360 360 358 358 358 358 358 359 360 360 360 360 361 362 363 364 365 365 366 366 365 364 363 361 361 360 362 362 361 359 358 356
331 333 335 336 338 340 340 341 342 343 343 344 345 347 349 350 349 351 352 353 352 353 354 355 354 356 357 358 357 358 359 359 359 359 359 359 360 360 359 357 358 358 359 360 362 363 364 364 364 365 364 364 363 362 361 362 360 361 361 361 359 357 355
327 330 332 334 336 337 339 340 341 341 342 342 344 345 346 347 347 347 349 351 352 352 355 356 355 356 356 356 357 357 359 360 360 360 359 360 360 358 358 357 357 358 357 359 361 361 363 363 363 364 362 361 361 362 362 361 360 360 360 359 358 356 353
327 329 330 332 334 336 338 339 340 341 342 343 344 345 345 345 346 346 347 349 350 351 352 353 353 354 356 356 356 358 358 358 359 359 359 359 359 359 358 358 359 358 359 361 360 361 361 362 363 364 363 362 362 362 363 362 360 359 359 359 357 356 355
329 328 330 332 333 335 336 339 339 340 342 343 342 342 343 344 345 345 346 347 349 349 350 351 352 355 355 356 356 356 357 357 357 358 358 358 358 358 358 358 359 360 360 360 361 361 360 362 362 364 363 362 363 363 364 363 362 359 359 358 356 355 354
328 332 330 328 330 332 334 338 340 340 342 343 342 343 343 343 343 344 345 346 347 348 349 350 351 353 356 356 356 357 356 356 357 358 358 357 356 356 356 357 359 360 359 358 358 361 361 361 362 364 364 363 363 364 364 364 362 360 360 358 357 355 354
329 332 334 331 330 329 333 336 340 342 343 345 344 345 343 343 344 344 345 346 346 347 348 349 350 352 355 355 355 356 356 357 357 356 355 355 355 355 356 356 357 359 358 358 357 359 361 362 363 364 364 362 363 364 364 363 362 362 361 359 358 357 355
330 335 336 333 333 332 333 333 337 340 342 343 344 343 344 344 344 344 344 345 345 346 348 349 351 351 353 353 353 354 355 355 355 355 355 354 354 355 355 355 356 358 357 357 357 359 360 361 363 363 363 361 362 362 362 362 362 361 359 359 359 358 356
332 333 337 338 338 335 333 335 339 340 342 343 344 343 345 345 343 343 344 346 346 346 348 349 350 350 351 352 351 353 354 355 354 354 354 354 354 355 355 355 356 357 357 358 357 358 358 360 361 361 362 362 362 362 363 363 362 361 360 358 358 358 357
330 334 336 334 339 338 341 340 338 338 341 341 340 343 344 343 343 343 346 346 346 347 348 349 350 351 351 351 351 353 353 354 354 355 354 355 355 356 356 356 356 356 357 357 357 357 357 358 360 361 361 362 362 361 362 362 362 361 360 360 359 358 357
328 327 330 334 336 338 339 338 338 339 340 341 341 343 342 343 343 344 346 346 346 346 347 349 351 352 351 351 351 353 353 354 356 357 357 356 358 357 357 356 356 357 358 358 357 356 357 357 358 360 360 361 361 361 362 362 361 361 361 360 359 357 356
326 327 331 331 338 340 340 338 340 341 341 341 339 341 342 343 343 346 348 347 347 346 347 351 351 352 351 352 352 354 356 356 357 359 359 358 359 359 358 357 358 358 359 359 358 357 357 358 358 359 359 360 361 361 361 360 359 359 359 359 358 358 355
322 324 326 329 334 336 341 340 342 343 342 342 340 341 340 342 344 344 344 345 347 347 348 350 352 353 351 351 353 357 357 358 359 359 360 359 359 360 360 358 358 358 359 360 358 359 359 359 359 358 358 358 359 360 359 359 359 346 333 338 357 357 356
328 328 328 331 335 334 338 340 342 343 343 343 342 341 341 342 343 344 342 343 344 347 348 349 353 351 351 352 354 356 358 359 358 360 359 359 360 360 360 359 359 359 360 360 360 359 360 359 358 358 358 358 358 358 358 358 355 332 329 331 334 352 356
329 333 333 331 333 333 335 336 339 341 341 339 339 341 341 342 342 342 341 343 344 345 347 348 349 349 353 354 358 358 358 357 359 359 358 359 359 360 360 359 359 359 360 359 359 360 360 359 359 359 358 358 358 357 358 358 337 329 328 329 328 334 355
328 330 332 334 332 333 330 331 335 341 339 338 339 339 339 341 340 342 343 344 346 347 346 347 348 352 354 355 356 358 359 359 359 359 359 359 359 360 360 360 359 359 360 359 360 361 360 359 358 359 359 358 358 357 357 357 335 328 327 327 326 327 339
328 328 330 330 329 329 331 333 333 334 338 342 341 339 339 341 340 343 344 345 348 347 349 350 350 352 352 356 358 358 359 359 359 358 359 360 359 360 360 359 358 359 359 359 360 360 359 359 358 359 359 358 358 358 358 358 335 326 325 324 324 325 332
336 337 338 339 339 337 337 336 336 337 338 337 338 340 340 340 341 342 343 345 346 349 351 351 351 352 354 356 356 358 359 359 359 359 360 360 360 360 359 358 359 359 359 359 359 358 358 358 357 357 358 357 357 357 357 358 332 324 323 321 321 323 327
339 340 340 343 343 343 343 339 337 335 336 339 339 338 339 339 340 339 339 342 344 346 348 351 353 351 354 356 356 357 359 358 359 359 360 360 359 359 358 358 359 359 360 360 359 360 359 360 358 357 357 357 357 355 355 357 329 324 322 320 319 322 339
339 341 341 343 343 343 346 346 342 339 339 339 337 337 338 339 339 339 339 341 342 347 346 349 351 352 355 354 355 357 358 358 358 359 359 359 358 358 358 358 359 359 360 359 359 358 358 357 357 358 358 357 357 355 356 357 337 322 319 318 317 323 344
339 340 342 342 345 345 347 349 349 346 338 337 339 338 340 341 341 341 343 343 344 346 345 347 351 354 356 355 358 359 359 359 357 358 358 359 358 358 358 359 360 360 360 358 357 357 357 358 357 357 357 356 356 356 355 356 338 318 317 316 316 326 346
339 340 342 343 343 344 346 349 350 349 342 339 337 340 343 342 342 342 345 347 342 344 346 350 353 355 355 356 358 359 359 359 357 355 358 359 358 359 359 360 360 361 361 359 359 358 359 357 356 356 357 358 357 341 350 357 340 316 317 315 315 328 349
340 341 343 344 346 346 348 351 349 343 339 337 342 345 346 343 344 346 347 345 343 344 348 350 351 356 356 356 358 358 360 360 359 358 357 357 359 360 360 361 360 360 359 358 357 357 358 357 356 356 357 357 357 357 355 356 358 331 315 315 314 319 348
339 340 341 343 344 345 348 349 349 347 347 350 350 345 344 343 345 348 349 350 348 346 346 351 356 358 358 359 357 358 360 360 360 357 358 360 360 361 361 362 360 359 359 357 356 357 356 356 355 355 356 356 357 358 357 357 359 338 313 313 313 316 328
338 341 344 344 343 344 347 346 347 348 347 348 348 346 346 349 349 352 352 351 349 351 352 356 359 359 358 359 359 358 360 360 361 361 360 361 362 361 360 360 360 359 359 358 358 356 357 357 355 355 354 357 357 358 357 350 340 351 316 314 312 314 318
336 337 337 338 343 345 345 345 343 342 344 345 347 349 349 347 350 351 352 351 353 354 356 357 358 359 359 359 358 359 360 360 361 358 358 359 360 359 358 360 360 360 360 359 358 357 356 356 357 355 354 354 355 356 357 358 351 334 330 314 312 312 315
336 336 336 337 338 342 345 344 342 341 342 343 345 347 351 354 350 352 351 355 355 356 355 358 360 361 359 359 359 359 360 361 358 358 359 360 360 360 360 360 360 360 359 359 357 355 355 355 357 356 353 353 354 356 356 357 359 335 323 322 312 313 313
333 333 334 335 336 338 340 340 340 340 341 342 343 344 345 350 354 353 351 351 356 360 356 357 358 357 357 355 356 359 360 359 359 360 360 361 360 360 359 360 360 358 360 359 357 356 355 354 353 353 353 354 353 355 355 356 356 350 328 319 314 314 312
334 335 335 336 337 337 338 339 340 340 339 340 342 342 343 344 345 343 343 348 352 358 360 358 356 357 357 358 358 358 358 359 359 360 360 361 360 360 360 359 358 357 358 358 357 357 355 355 355 354 354 354 354 354 354 355 355 350 339 325 320 317 314
333 334 335 335 336 338 338 338 337 337 338 337 340 341 342 343 344 345 347 348 351 355 359 360 356 356 357 357 356 358 358 357 355 355 356 359 359 359 360 359 359 359 358 358 357 356 354 354 354 353 352 351 351 352 352 350 351 349 343 338 334 332 326
333 334 336 337 338 339 338 338 337 337 337 336 338 339 340 341 343 345 347 349 351 354 358 359 360 356 356 357 358 356 357 356 355 354 356 358 359 358 359 360 359 358 357 356 356 355 353 354 352 351 351 351 352 353 346 345 346 348 345 341 339 336 333
333 334 335 336 338 339 338 338 337 337 337 336 338 339 339 341 343 345 347 348 351 354 354 354 355 357 358 359 358 357 355 356 356 355 355 358 360 359 361 359 358 358 359 360 361 359 357 355 353 353 354 354 354 353 343 343 343 346 333 341 328 333 330
332 332 333 335 337 338 338 338 338 337 337 337 339 341 341 342 343 344 344 346 348 350 350 350 350 350 349 349 349 350 352 352 352 353 352 351 352 355 357 349 331 344 357 357 339 323 315 314 347 360 360 360 360 358 350 345 346 329 319 316 313 314 315
329 330 332 333 334 334 334 335 337 337 337 338 339 340 340 340 341 342 342 343 344 345 346 346 344 343 342 342 342 342 345 345 346 348 349 349 349 351 350 351 355 324 317 319 320 314 308 307 307 308 315 345 357 352 330 329 324 313 309 307 307 308 310
329 330 331 332 332 333 333 333 334 334 335 337 339 339 340 340 341 341 341 342 343 343 343 343 343 340 342 343 344 343 347 348 348 348 349 349 349 348 348 347 347 351 330 319 318 317 311 308 307 308 310 313 328 341 351 322 311 306 306 306 305 306 306
Wind_Speed
20 19 19 18 18 20 21 19 20 19 18 18 18 20 21 19 18 16 16 16 18 18 17 18 17 16 18 16 16 15 15 13 12 13 12 12 11 11 11 11 11 10 10 10 10 10 9 10 11 10 10 11 11 11 11 10 10 9 9 8 8 7 7
16 18 20 19 20 20 21 20 19 18 18 18 18 20 19 20 18 18 17 17 19 20 18 18 18 17 18 17 15 16 16 15 14 12 11 10 10 10 11 11 11 11 11 10 9 8 8 10 10 10 10 11 12 12 11 11 11 11 10 9 9 8 7
16 18 18 18 20 20 21 19 18 18 19 18 19 19 20 19 19 20 18 18 19 19 17 18 19 18 17 16 16 17 16 15 15 15 15 14 15 15 12 11 11 10 11 10 9 8 8 9 10 10 11 10 11 12 12 12 11 11 11 10 9 7 8
15 18 20 22 22 20 19 19 20 20 19 21 21 23 22 21 19 18 18 20 20 19 20 19 19 19 17 17 17 16 17 17 16 16 16 15 14 14 12 11 10 10 10 11 11 9 9 10 11 10 11 10 10 11 12 12 12 11 11 11 8 8 8
15 15 14 15 18 16 17 19 20 21 23 23 22 21 21 20 20 19 19 20 21 22 22 21 18 18 15 16 14 13 16 17 16 15 15 14 13 13 13 14 12 13 12 11 10 10 9 10 11 10 11 11 11 11 13 12 12 12 11 11 8 8 8
14 14 15 16 17 19 21 23 24 24 23 23 23 22 20 21 19 22 22 20 20 20 18 18 18 18 18 18 16 15 14 15 15 15 15 14 13 13 14 14 14 14 13 12 11 11 11 11 12 11 12 12 12 12 12 12 12 12 12 10 9 9 9
11 14 15 16 17 19 21 23 23 24 23 22 21 19 19 19 21 22 21 21 23 21 21 21 21 19 17 17 17 17 17 17 16 17 15 16 15 15 14 14 13 13 13 11 12 11 12 12 13 12 12 13 12 12 12 12 12 12 12 10 9 9 9
11 10 14 16 17 18 19 20 22 21 19 17 17 18 20 19 19 21 21 21 22 21 20 22 21 18 17 17 17 19 18 19 17 17 16 18 17 16 14 13 13 13 12 13 13 12 13 14 13 12 13 13 13 12 12 12 12 13 12 10 10 10 8
12 9 10 12 14 13 14 14 16 17 17 18 20 18 21 20 20 20 22 22 20 21 22 22 21 19 17 17 17 19 18 18 18 17 18 19 17 18 17 15 14 13 14 14 13 13 13 13 14 13 13 13 13 12 12 12 12 13 11 11 11 12 11
11 8 8 6 8 10 11 12 12 12 15 15 17 16 18 19 19 19 20 20 20 23 24 22 19 18 17 17 18 19 18 18 17 19 20 19 17 19 19 17 15 15 15 15 14 14 13 14 14 13 13 14 13 13 12 12 12 12 11 12 12 12 12
8 6 4 7 9 10 10 12 14 15 16 17 16 16 17 17 18 19 19 20 21 21 23 20 18 18 19 20 21 20 19 21 20 19 20 20 18 20 20 19 17 15 17 16 16 15 14 13 14 14 14 14 14 14 14 13 13 13 13 12 12 13 12
4 6 7 8 8 9 13 15 14 14 16 15 15 17 17 17 18 20 19 21 21 21 19 20 19 19 18 20 20 19 21 21 21 21 21 21 20 21 20 19 18 17 16 17 17 16 16 15 14 14 15 15 15 15 14 13 13 13 13 14 13 12 12
5 5 5 7 8 8 7 8 15 17 17 15 18 17 17 18 19 20 17 20 21 19 18 18 18 18 19 20 21 19 20 21 21 19 20 20 20 18 18 19 19 19 18 17 18 17 17 16 16 14 15 15 15 15 14 14 13 13 13 13 13 13 13
5 7 7 5 7 10 13 14 15 15 15 15 15 16 17 18 19 19 18 19 20 19 17 15 17 18 18 18 19 18 20 20 19 18 19 18 17 17 18 18 18 18 16 16 18 18 18 18 18 15 14 15 15 14 13 13 13 13 13 13 13 12 12
7 8 5 6 8 8 10 11 12 13 12 13 15 16 18 17 18 15 14 17 17 18 19 17 17 17 18 17 18 18 18 17 16 16 17 17 16 16 17 17 17 17 16 16 17 16 18 18 17 16 15 15 14 14 13 13 13 12 13 13 14 12 13
7 7 7 8 9 11 11 13 12 12 13 14 16 16 17 15 16 18 19 19 18 18 19 16 16 17 18 19 19 16 15 15 14 15 16 16 16 16 16 17 17 17 17 16 17 16 15 16 16 16 16 15 14 14 13 12 11 14 18 16 12 13 11
4 5 6 8 8 9 9 10 11 10 11 13 15 17 17 17 17 17 21 19 20 19 19 18 15 17 19 20 18 15 14 14 15 13 15 16 16 16 17 18 16 16 16 16 16 17 15 15 16 16 15 16 15 15 13 12 12 17 18 20 18 13 12
8 8 7 6 5 5 7 10 11 12 14 16 17 16 15 16 15 17 19 19 20 20 19 18 18 19 18 17 12 13 14 15 15 16 16 16 17 17 17 17 17 16 16 16 17 16 15 16 15 15 15 14 15 16 14 14 15 17 20 20 19 16 12
8 8 8 4 5 6 7 9 11 13 14 14 15 16 19 17 15 17 18 18 19 16 18 19 20 18 17 14 15 15 15 14 15 16 15 17 16 15 15 17 17 17 16 17 16 14 16 17 16 16 15 15 15 16 15 14 16 19 20 20 20 19 16
9 8 6 5 6 8 8 7 8 10 13 14 15 18 17 16 17 16 16 14 11 14 15 15 16 16 16 14 14 15 14 14 15 16 16 15 15 15 16 17 18 18 16 15 15 15 16 18 19 16 16 17 18 16 14 16 16 20 21 20 20 20 17
6 6 7 5 6 7 7 8 9 10 11 14 14 12 12 14 16 14 13 13 15 16 15 15 16 14 14 13 14 13 13 15 15 15 14 15 15 15 16 17 17 17 16 15 16 17 19 18 19 19 20 20 18 16 17 15 16 20 22 20 20 20 18
5 5 7 5 6 7 7 8 9 10 11 9 10 13 15 16 16 15 16 16 15 14 15 13 13 14 12 12 13 14 14 14 14 14 14 15 15 16 17 17 17 17 15 14 15 16 16 15 16 19 20 20 20 21 19 15 18 20 21 21 20 20 13
4 6 6 6 7 8 7 9 9 10 9 9 10 12 15 14 15 15 15 16 16 15 16 15 14 14 13 14 14 14 13 13 13 14 15 16 17 18 18 18 17 15 13 14 15 15 16 19 20 18 17 20 21 21 20 17 16 21 21 21 21 17 12
4 5 5 6 6 7 7 7 7 7 8 9 11 12 11 12 13 13 13 14 14 15 16 16 15 14 13 13 13 14 13 14 16 16 18 18 20 20 19 17 15 16 15 17 17 17 19 17 18 20 20 22 22 19 20 21 17 22 21 22 23 20 14
3 4 4 5 6 7 7 7 6 6 6 8 10 10 10 12 14 14 13 13 15 16 15 15 14 14 15 15 14 15 17 17 17 18 16 17 18 17 17 17 16 14 12 14 15 16 16 17 20 20 19 18 20 21 23 19 15 21 21 23 23 20 12
4 5 4 5 4 5 6 6 2 1 3 6 7 6 9 11 11 12 11 13 14 15 15 16 17 13 13 14 14 13 12 12 14 13 14 17 16 16 16 14 14 14 14 13 13 15 16 16 20 21 18 18 21 18 19 19 12 17 23 23 23 25 15
3 4 5 5 5 6 4 6 7 6 6 5 5 3 8 10 10 10 10 10 11 15 16 11 7 8 10 9 11 11 12 12 14 17 17 16 15 15 13 12 15 15 15 17 16 15 16 16 17 18 19 19 20 18 20 18 15 15 23 23 24 26 21
2 2 3 4 5 6 5 6 8 8 8 8 7 3 4 7 9 8 8 10 11 9 5 6 8 9 10 11 11 11 12 12 13 14 13 12 11 12 13 13 14 14 15 14 16 20 19 18 16 15 18 15 18 18 20 19 21 12 22 25 26 26 28
4 4 4 5 7 6 5 7 9 9 9 8 9 7 3 4 6 5 5 7 3 5 6 7 9 11 11 12 13 13 14 14 15 14 13 13 14 15 14 13 14 14 14 15 15 17 19 19 16 16 15 13 17 18 20 19 16 21 18 24 26 27 28
5 5 4 5 5 5 6 9 9 9 9 9 8 8 7 4 4 4 4 4 6 2 3 5 6 8 9 9 10 11 11 11 14 14 13 14 13 14 13 13 14 13 14 15 16 17 17 17 16 15 17 16 15 14 17 17 13 17 23 21 28 27 28
6 6 5 6 5 5 6 8 10 10 10 9 10 10 10 9 6 7 6 4 3 2 2 5 7 8 9 10 10 10 9 10 11 12 13 12 13 13 13 14 13 13 15 15 17 15 16 17 18 19 17 16 15 14 12 11 13 11 19 25 24 25 26
5 6 6 5 5 5 5 7 9 11 11 11 11 11 11 11 10 10 5 4 4 3 1 4 7 7 8 7 7 8 9 10 11 12 12 12 12 12 12 13 13 14 13 15 14 16 19 17 15 16 18 13 15 15 13 11 11 6 9 13 20 20 23
5 6 6 6 5 4 5 7 9 11 13 13 12 11 11 11 10 9 6 6 4 3 2 1 4 5 6 6 7 7 8 10 10 10 11 12 12 12 11 11 11 12 12 15 16 18 19 19 17 17 17 18 18 17 8 8 7 8 11 10 10 13 15
6 6 5 5 5 6 8 10 11 12 13 12 11 11 11 11 10 10 9 8 7 5 5 5 3 3 3 3 2 3 5 6 7 8 8 9 11 11 11 11 12 13 14 14 17 18 20 19 18 20 21 20 20 13 8 14 11 12 13 14 13 13 14
6 6 6 6 7 7 9 10 12 12 13 12 10 10 10 11 11 11 11 10 9 8 7 7 7 6 6 4 3 2 2 1 1 2 4 4 6 8 8 10 12 13 13 15 14 16 18 18 19 19 21 20 17 13 11 13 16 20 21 20 22 21 16
7 7 6 6 6 8 10 11 11 11 11 10 9 9 10 10 11 10 10 10 10 10 9 8 8 8 8 7 6 5 4 3 2 2 0 2 3 3 4 1 2 4 6 8 6 11 13 10 10 12 13 13 12 16 15 16 18 21 24 24 24 24 26
8 8 8 8 8 9 10 10 10 11 11 9 9 10 10 11 10 9 10 10 10 10 10 9 8 8 7 7 6 6 5 5 4 3 2 0 2 3 3 4 3 3 4 5 7 8 12 13 15 17 18 15 16 15 22 21 18 13 15 15 18 21 23
10 9 9 9 9 10 10 11 11 11 10 8 9 9 9 10 9 8 9 10 9 7 7 7 8 8 6 5 3 3 3 4 4 3 2 3 2 2 2 2 5 5 5 7 9 10 13 14 16 17 19 21 21 17 11 16 15 20 21 21 20 19 18
Wind_Direction
199 202 204 202 200 200 199 199 196 199 200 198 198 200 200 198 197 194 191 191 196 200 194 193 196 198 201 202 202 201 201 198 197 199 201 204 203 200 196 199 200 200 201 201 201 201 197 187 186 191 197 211 215 214 217 219 219 221 218 217 217 212 203
199 203 204 201 201 203 201 196 193 197 199 198 198 198 200 199 193 194 196 192 195 199 195 193 195 198 199 201 201 201 201 202 199 198 200 201 197 199 197 195 197 198 199 204 201 201 191 188 188 189 193 199 215 217 218 220 220 219 219 213 212 213 201
201 204 204 201 204 204 203 197 194 198 199 197 197 196 197 197 192 195 194 191 195 198 196 195 195 198 198 199 199 200 201 200 200 199 201 204 204 206 202 200 199 201 202 200 202 200 196 195 194 195 195 199 210 216 218 220 220 219 219 211 202 194 197
203 205 203 202 202 201 195 195 198 200 201 199 197 197 197 196 193 193 194 196 196 194 196 197 195 197 196 196 199 200 200 201 201 202 205 207 205 201 198 196 199 202 200 201 201 200 197 198 196 196 193 198 203 209 215 218 221 220 218 207 197 196 200
209 206 204 204 203 198 197 199 200 201 204 202 200 198 196 192 191 193 196 199 199 198 199 196 196 197 197 197 198 200 200 200 200 202 204 205 201 195 197 200 199 202 204 199 196 194 193 196 200 198 197 202 205 208 214 213 221 220 216 206 194 197 202
204 194 200 203 202 203 200 202 203 202 202 202 201 198 200 197 195 198 199 197 200 203 198 194 194 193 194 195 198 200 198 199 200 199 200 200 197 197 201 201 201 201 202 198 196 198 196 199 202 200 201 202 206 206 205 210 217 217 216 205 199 199 205
200 194 199 203 204 203 202 203 203 204 203 203 203 199 197 195 196 199 198 198 199 197 194 195 196 193 194 193 198 197 196 196 196 200 201 203 202 202 202 200 198 199 201 192 197 196 197 200 202 201 202 205 205 205 200 201 208 215 215 205 196 203 201
226 201 201 203 205 204 203 203 202 202 201 199 199 201 196 198 198 199 198 200 199 200 200 201 198 195 190 191 194 197 197 199 200 201 202 204 204 202 201 199 196 196 193 196 196 195 199 201 203 203 201 206 206 204 202 196 198 207 208 195 199 204 201
234 221 218 213 212 212 209 205 199 195 193 191 195 198 197 197 200 198 198 199 198 198 203 202 200 194 187 187 189 193 196 198 201 198 200 202 202 204 203 202 200 195 197 201 201 198 202 202 204 201 200 204 205 202 200 196 196 204 196 196 198 202 205
239 226 218 207 207 206 203 194 181 189 192 193 198 196 195 197 199 199 198 198 197 200 203 200 198 193 187 187 193 193 194 197 199 200 201 203 204 205 205 204 201 197 200 200 202 199 199 203 203 200 199 203 204 203 202 198 195 193 195 197 199 203 205
240 234 211 199 199 195 188 190 188 195 200 200 199 196 195 193 194 197 200 198 199 204 203 199 196 194 191 189 194 195 197 200 199 201 202 203 204 205 205 205 204 201 200 200 204 201 197 201 202 202 200 204 205 204 203 200 196 194 197 199 202 205 206
235 229 221 206 197 182 190 194 193 197 200 199 194 195 194 196 196 200 199 199 200 203 199 198 195 196 192 189 193 196 198 199 201 203 202 201 203 204 203 203 203 201 198 200 202 201 201 200 202 203 202 204 205 204 203 200 197 197 199 200 202 204 208
255 239 239 227 202 200 191 194 200 202 200 197 196 193 191 195 198 198 196 200 201 203 198 196 194 193 191 190 194 195 198 197 199 199 199 198 200 201 200 202 202 202 201 199 201 201 202 204 204 203 202 203 204 204 201 199 197 198 199 202 201 202 204
247 253 237 209 207 200 201 205 205 204 200 196 194 190 192 194 196 196 194 197 199 199 196 192 190 188 188 190 195 196 197 198 196 196 196 196 196 197 199 200 202 203 201 199 201 204 204 205 205 203 202 203 204 205 201 198 198 198 200 202 202 200 202
228 237 237 227 231 218 210 210 210 206 201 198 197 193 196 195 197 196 191 199 198 197 199 190 184 186 186 189 194 196 194 192 192 192 190 189 189 191 195 198 199 200 200 199 202 205 207 207 206 203 203 204 203 203 202 202 203 201 198 202 204 203 202
233 235 226 226 228 224 213 213 211 204 200 197 197 196 197 196 197 198 197 198 194 196 200 190 188 185 194 196 198 191 185 183 185 189 184 184 189 189 190 195 199 201 201 199 201 204 204 207 207 207 204 202 203 203 204 205 205 199 197 200 202 199 200
234 237 233 226 226 230 228 221 219 205 201 201 199 197 198 198 198 197 201 200 198 197 196 192 189 190 197 205 201 187 184 185 193 189 188 190 191 193 193 197 200 202 203 203 201 204 202 203 206 208 207 205 203 204 206 207 208 194 196 204 204 199 196
266 264 261 254 258 241 232 227 220 211 208 206 204 201 199 199 196 196 202 200 200 200 193 195 194 196 200 205 183 176 185 192 190 191 193 189 192 191 193 197 201 203 203 202 201 201 203 203 204 207 209 209 209 209 209 211 204 190 198 203 203 202 201
256 255 249 239 257 258 244 237 227 219 219 213 205 202 203 196 195 198 201 199 199 192 190 193 195 196 201 196 186 189 189 188 188 191 190 191 190 189 191 195 200 203 202 203 202 199 203 207 204 207 208 210 209 211 211 216 195 192 198 202 201 201 204
245 256 266 255 247 254 258 245 243 235 224 218 212 207 202 195 199 201 201 200 182 187 194 194 198 195 197 190 186 187 187 187 189 192 191 185 186 188 192 196 203 205 205 205 202 203 207 209 210 209 211 213 216 215 212 217 193 190 196 199 197 195 198
248 258 268 262 255 256 253 253 250 244 236 230 224 212 199 200 205 199 192 186 186 192 193 198 200 197 193 189 191 187 187 189 191 190 186 184 186 189 195 199 203 205 204 203 204 207 212 209 212 216 218 218 215 219 220 219 193 188 194 195 192 192 195
248 254 261 265 270 267 262 260 252 249 243 235 215 207 201 203 199 194 196 193 194 194 198 199 201 203 193 187 186 188 188 187 188 187 186 185 189 193 198 201 202 202 200 202 208 211 212 206 212 216 218 219 219 222 225 221 193 190 191 190 189 184 194
270 269 275 275 269 272 270 266 262 260 257 238 223 211 207 204 195 195 192 189 192 187 193 194 195 198 191 191 190 188 182 179 180 186 188 190 192 197 199 200 201 199 194 200 204 204 208 215 213 216 216 219 219 220 225 225 192 188 187 186 182 179 198
268 268 279 290 291 284 275 269 265 247 238 234 220 216 202 194 188 185 185 188 186 186 193 193 195 192 186 187 179 176 176 182 188 186 189 191 194 197 199 199 198 197 193 202 203 207 213 213 217 218 219 220 220 215 221 227 200 182 183 183 179 184 193
293 300 307 312 313 309 307 303 290 281 234 226 220 207 190 190 187 185 185 186 192 191 191 195 195 186 186 182 177 180 189 191 194 197 192 194 199 199 199 198 197 198 194 204 208 209 208 210 217 218 217 217 219 214 217 221 198 177 179 181 180 187 195
320 329 337 336 339 325 318 322 318 144 214 219 228 202 187 189 188 190 186 187 192 192 196 200 200 189 182 185 188 189 190 188 190 192 195 200 199 199 201 197 192 193 193 202 209 213 213 207 213 212 212 215 219 217 210 214 204 173 179 181 182 187 194
328 333 345 353 8 343 19 40 48 48 35 11 344 250 197 190 184 188 189 184 191 203 207 198 161 168 182 188 192 190 189 189 190 194 201 201 199 198 198 195 198 200 200 206 207 211 218 215 217 218 217 215 217 219 220 215 204 173 180 181 183 188 192
357 31 49 42 23 22 44 56 49 43 36 21 14 14 202 185 182 183 179 188 205 209 185 148 159 172 178 182 187 186 188 191 196 199 202 202 197 198 203 205 204 204 204 208 214 216 219 219 219 221 223 216 217 218 219 210 200 176 183 181 184 185 194
352 2 10 29 55 47 54 73 63 51 37 23 22 15 20 190 182 174 172 191 198 201 184 164 172 175 179 180 184 187 189 193 192 193 199 200 200 204 207 202 202 204 204 206 210 216 221 223 221 223 221 217 219 215 217 211 195 185 177 184 183 188 195
349 353 8 31 44 56 75 87 83 71 53 43 36 30 27 53 118 100 130 85 19 343 202 178 172 173 182 186 192 193 195 194 198 201 203 201 195 199 200 200 200 201 208 206 211 219 219 221 219 221 225 225 228 228 221 214 194 186 180 182 187 190 194
354 355 6 17 31 49 67 84 90 86 73 58 52 48 49 41 68 91 75 28 350 10 187 189 184 182 192 196 197 195 196 194 200 201 202 200 195 199 203 204 198 201 210 210 216 218 224 225 222 221 221 218 219 221 219 213 206 190 179 181 189 193 194
13 9 14 25 33 44 68 78 82 82 78 65 57 56 52 53 55 60 45 27 20 357 331 193 190 194 199 198 194 194 195 197 201 203 204 204 205 207 206 207 204 208 207 211 210 214 222 224 217 218 219 210 217 219 218 209 209 163 169 183 189 195 196
46 29 25 31 34 48 67 73 71 68 66 60 49 50 50 53 53 51 49 43 35 35 12 205 191 189 193 197 200 196 197 201 206 208 211 208 211 212 210 207 209 209 209 213 215 219 221 222 219 222 224 223 224 222 191 171 178 164 168 176 188 199 194
56 53 46 39 47 59 69 71 70 67 66 64 57 52 46 44 42 39 36 35 32 38 60 78 94 160 164 168 156 187 202 212 214 214 213 207 205 210 210 210 211 213 212 210 215 222 224 226 226 226 227 228 225 214 180 205 198 191 178 183 180 186 185
62 52 44 44 46 53 62 66 67 66 66 66 65 62 60 56 49 41 36 34 33 34 49 60 70 83 83 83 105 101 82 110 118 212 233 239 227 230 234 227 225 225 227 223 215 215 216 220 228 227 230 227 225 204 197 204 202 202 194 187 180 175 167
49 43 33 26 33 42 54 60 65 67 67 66 62 61 58 56 53 47 42 37 34 40 51 57 61 62 61 59 63 63 74 78 91 72 132 234 238 251 248 322 325 268 271 264 319 338 322 327 260 253 233 220 213 203 201 201 206 203 190 186 177 176 172
46 42 37 31 37 46 53 57 63 69 70 69 66 59 56 56 53 53 51 49 45 43 44 48 60 64 66 65 66 68 68 68 66 66 70 22 270 269 281 293 296 335 322 282 283 289 301 292 279 276 277 252 235 222 218 218 220 193 178 172 176 179 175
47 41 35 34 33 35 43 48 51 52 56 61 62 61 60 64 64 63 57 49 45 47 57 64 70 70 68 69 86 114 118 128 138 150 156 172 173 174 201 263 277 284 270 261 254 253 247 254 264 264 251 247 237 227 209 207 173 151 163 169 172 178 174